Location: Yecla
(38.6122°N, 1.1101°W)
Time: 21:46:57
(UTC+01:00)

Hubble Space Telescope - Visible Passes

Search period start: 22 November 2019 00:00
Search period end: 02 December 2019 00:00
Orbit: 536 x 540 km, 28.5° (Epoch: 21 November)

Date Brightness Start Highest point End Pass type
(mag) Time Alt. Az. Time Alt. Az. Time Alt. Az.
22 Nov 3.0 18:32:03 10° SSW 18:34:42 17° S 18:37:23 10° SE visible
22 Nov 3.1 20:12:17 10° SW 20:14:06 17° SSW 20:14:06 17° SSW visible
23 Nov 3.0 18:21:11 10° SW 18:24:01 18° S 18:26:51 10° SE visible
23 Nov 2.9 20:01:40 10° SW 20:04:09 18° SSW 20:04:09 18° SSW visible
24 Nov 3.0 18:10:23 10° SW 18:13:19 19° S 18:16:16 10° SE visible
24 Nov 2.9 19:51:06 10° SW 19:53:53 18° S 19:54:15 17° S visible
25 Nov 3.0 19:40:35 10° SW 19:43:11 16° S 19:44:25 15° S visible
26 Nov 3.3 19:30:09 10° SW 19:32:28 15° SSW 19:34:39 11° SSE visible
27 Nov 3.4 19:19:51 10° SW 19:21:46 13° SSW 19:23:41 10° SSE visible
28 Nov 3.6 19:09:49 10° SW 19:11:03 11° SSW 19:12:15 10° S visible
